DECAYED
Showing default

COSMOS 2568, 56091 (Decayed)

Orbit data source: Space-Track

COSMOS 2568, 56091 was a payload satellite owned by MO RF (CIS) in LEO that was launched on Wed, 29 Mar 2023 UTC via a SOYUZ-2-1V launch vehicle from the Plesetsk Missile And Space Complex (PKMTR). Payload-class satellites include a variety of spacecraft equipped with specific instruments for various scientific and technological missions. These include communications satellites like Starlink; space stations such as the ISS; scientific satellites like the Hubble; Earth observation satellites from companies like Planet Labs, Umbra, and HawkEye 360; GPS; miniature CubeSats for education and research; and military/defense satellites.

Not visible in the next 10 days
Identifier
56091, 2023-045A
Orbit
Decayed
Country
Flag of CISCIS
Related business
Manufacturer
VNIIEM
Mission
Decayed Defense Imaging
Bus & Motor
EMKA, Unknown motor
Mass
520 kg wet, ~500 kg dry
Launch date (UTC)
2023-03-29 (3 years ago)
Launch vehicle
SOYUZ-2-1V
Launch site
Plesetsk Missile And Space Complex (PKMTR)
Object type
Payload
Rocket body
Debris
Shape & HBR
Cyl + 2 Pan, 1.5 m
Radar Cross Section
3.727 m², Large (>1 m²)

Expand to show TLE details & history
Last TLE update: 1 year ago

TLE from 1 year ago
0 COSMOS 2568
1 56091U 23045A   25001.26864627  .01146446  18461-5  26621-3 0  9995
2 56091  96.3242  70.4408 0002834 274.5234 131.9252 16.29949092102463
Epoch: 2025-01-01T06:26Z
TLE epoch observation values (Epoch: 2025-01-01T06:26:51.037Z)
Latitude
46.21155°
Longitude
-134.03725°
Altitude
201.173 km
Speed
7.789 km/s
True Right ascension
04h 15m 21s
True Declination
46° 01' 31"
Sunlit
Object was in full shadow at epoch
Visualization orbit readout
Latitude
Unknown
Longitude
Unknown
Altitude
Unknown
Speed
Unknown
Apparent Right ascension
Unknown
Apparent Declination
Unknown
Sunlit
N/A
Visualization observer readout
Local Sidereal Time
21:24:50
Azimuth
Unknown
Elevation
Unknown
Doppler factor
Unknown
Orbital elements
Apogee altitude
191.314 km
Perigee altitude
187.591 km
Semi-major axis
6,567.59 km
Eccentricity
0.00028
Inclination
96.3242°
RAAN
70.4408°
Arg. of periapsis
274.5234°
True anomaly
131.94936°
Mean anomaly
131.9252°
Eccentric anomaly
131.93728°
Mean motion
4.07788 °/min
Orbital period
88.28 mins
BSTAR
0.00026621
Loading maneuver chart data...
Computing Atmospheric mass density...
Loading historical data...
Loading historical data...
Loading historical data...
Loading historical data...
Loading historical data...
Loading historical data...
Loading historical data...
Other satellites on launch #45 in the year 2023 (2023-03-29 UTC)

Documentation

Showing up to 5 results
|